Tracking 28799 objects as of 18-Apr-2024
HD Live streaming from Space Station
objects crossing your sky now

SL-12 R/B(2)

Track SL-12 R/B(2) now!


NORAD ID: 23845
Int'l Code: 1996-021D
Perigee: 11,671.4 km
Apogee: 36,251.5 km
Inclination: 6.8 °
Period: 876.2 minutes
Semi major axis: 30332 km
RCS: 34.7717 m2 (large)
Launch date: April 8, 1996
Source: Commonwealth of Independent States (former USSR) (CIS)
Launch site: TYURATAM MISSILE AND SPACE COMPLEX (TTMTR)

Note: This is a ROCKET BODY
Your satellite tracking list
Your tracking list is empty




NASA's NSSDC Master Catalog

Two Line Element Set (TLE):
1 23845U 96021D   24108.71425903 -.00000094  00000-0  00000-0 0  9990
2 23845   6.8014 286.5027 4051772 172.3086 223.8083  1.64339251168214
Source of the keplerian elements: AFSPC